Location: Grange Verzio
(44.5000°N, 6.9833°E)
Time: 11:34:15
(UTC+00:00)

ATLAS 2AS CENTAUR R/B - Visible Passes

Search period start: 28 September 2023 00:00
Search period end: 08 October 2023 00:00
Orbit: 998 x 1213 km, 63.7° (Epoch: 27 September)

Date Brightness Start Highest point End Pass type
(mag) Time Alt. Az. Time Alt. Az. Time Alt. Az.
28 Sep 5.2 00:19:32 12° E 00:19:32 12° E 00:20:30 10° ENE visible
28 Sep 3.0 02:07:00 69° ESE 02:07:00 69° ESE 02:14:04 10° NE visible
28 Sep 3.6 03:54:26 23° W 03:58:16 36° NW 04:04:50 10° NNE visible
29 Sep 3.9 01:23:48 39° E 01:23:48 39° E 01:28:56 10° NE visible
29 Sep 3.2 03:11:14 42° W 03:13:00 49° NW 03:20:00 10° NNE visible
30 Sep 4.7 00:40:33 22° ENE 00:40:33 22° ENE 00:43:34 10° NE visible
30 Sep 2.8 02:28:00 68° NW 02:28:00 68° NW 02:35:08 10° NE visible
30 Sep 4.2 04:15:26 14° WNW 04:20:08 24° NNW 04:25:46 10° NNE visible
30 Sep 5.3 23:57:16 11° ENE 23:57:16 11° ENE 23:57:41 10° ENE visible
01 Oct 3.3 01:44:42 56° NE 01:44:42 56° NE 01:50:13 10° NE visible
01 Oct 3.9 03:32:09 25° WNW 03:34:38 31° NNW 03:40:53 10° NNE visible
02 Oct 4.2 01:01:23 33° ENE 01:01:23 33° ENE 01:05:11 10° NE visible
02 Oct 3.4 02:48:50 40° NW 02:49:17 41° NW 02:56:03 10° NNE visible
02 Oct 4.5 04:37:31 10° NW 04:42:18 18° NNW 04:46:58 10° NNE visible
03 Oct 4.9 00:18:02 19° ENE 00:18:02 19° ENE 00:19:58 10° NE visible
03 Oct 3.4 02:05:28 49° N 02:05:28 49° N 02:11:12 10° NNE visible
03 Oct 4.3 03:52:54 15° WNW 03:56:37 21° NNW 04:01:53 10° NNE visible
04 Oct 3.9 01:22:05 39° NNE 01:22:05 39° NNE 01:26:19 10° NE visible
04 Oct 4.0 03:09:31 25° NW 03:11:03 27° NNW 03:16:57 10° NNE visible
04 Oct 4.7 05:00:31 10° NW 05:04:41 16° N 05:08:45 10° NNE visible
05 Oct 4.6 00:38:41 25° NE 00:38:41 25° NE 00:41:22 10° NE visible
05 Oct 3.8 02:26:07 34° NNW 02:26:07 34° NNW 02:32:06 10° NNE visible
05 Oct 4.6 04:14:24 10° NW 04:18:53 17° N 04:23:15 10° NNE visible
05 Oct 5.1 23:55:16 15° NE 23:55:16 15° NE 23:56:16 10° NE visible
06 Oct 4.0 01:42:41 36° N 01:42:41 36° N 01:47:15 10° NNE visible
06 Oct 4.5 03:30:07 15° NW 03:33:09 19° NNW 03:38:03 10° NNE visible
07 Oct 4.4 00:59:15 28° NNE 00:59:15 28° NNE 01:02:24 10° NNE visible
07 Oct 4.2 02:46:41 23° NW 02:47:30 23° NNW 02:53:03 10° NNE visible
07 Oct 4.8 04:37:08 10° NNW 04:41:18 16° N 04:45:20 10° NE visible
